Regional Weather Roundup
Issued by NWS

Home | Current Version | Previous Version | Text Only | Print | Product List | Glossary Off
Versions: 1 2 3 4 5 6 7 8 9 10 11 12 13 14 15 16 17 18 19 20 21 22 23 24 25 26 27 28 29 30 31 32 33 34 35 36 37 38 39 40 41 42 43 44 45 46 47 48 49 50

000
ASUS43 KMPX 282301
RWRMN
WEATHER ROUNDUP FOR MINNESOTA
NATIONAL WEATHER SERVICE TWIN CITIES/CHANHASSEN MN
500 PM CST SUN DEC 28 2014


NOTE: "FAIR" INDICATES FEW OR NO CLOUDS BELOW 12,000 FEET WITH NO
SIGNIFICANT WEATHER AND/OR OBSTRUCTIONS TO VISIBILITY. N/A MEANS
CURRENT SKY AND/OR WEATHER CONDITIONS ARE NOT AVAILABLE.

MNZ060>063-068>070-290000-
   Twin Cities Metro

CITY           SKY/WX    TMP DP  RH WIND       PRES   REMARKS
TWIN CITIES    MOCLDY    22  11  62 N7        30.24R WCI  13
ST PAUL        CLEAR     20  11  68 N6        30.25R WCI  12
CRYSTAL        CLEAR     20   9  62 N5        30.23R WCI  13
BLAINE         CLEAR     18  12  79 N5        30.23R WCI  11
LAKEVILLE      CLEAR     18  14  86 CALM      30.22R
EDEN PRAIRIE   MOCLDY    20  11  68 N5        30.22R WCI  13
SOUTH ST PAUL  MOCLDY    22  13  66 N5        30.24R WCI  16
LAKE ELMO      FAIR      19  12  73 N5        30.24R WCI  13
$$
MNZ001>005-007-008-013>017-022>024-027-028-290000-
   Northwest Minnesota

CITY           SKY/WX    TMP DP  RH WIND       PRES   REMARKS
BEMIDJI        CLEAR      0  -6  76 NW8       30.27R WCI -14
HALLOCK        CLEAR     -4 -11  71 NW10      30.41R WCI -21
ROSEAU         CLEAR     -2  -9  71 W8        30.34R WCI -17
WARROAD        CLEAR      0  -9  65 W6        30.32R WCI -12
THIEF RVR FALL CLEAR     -4  -9  77 NW10      30.34R WCI -21
CROOKSTON      CLEAR     -4  -9  77 N9        30.39S WCI -20
FOSSTON        CLEAR     -4  -9  77 CALM      30.32R
DETROIT LAKES  CLEAR      5   0  78 N8        30.29R WCI  -8
MOORHEAD       CLEAR      1  -2  85 N12       30.36R WCI -15
PARK RAPIDS    CLEAR      9  -3  58 N8        30.24R WCI  -3
MAHNOMEN       FAIR       1  -5  75 N7        30.30R WCI -12
$$
MNZ006-009>011-018-025>026-290000-
   North Central Minnesota

CITY           SKY/WX    TMP DP  RH WIND       PRES   REMARKS
BAUDETTE       CLEAR     -2 -11  65 W3        30.29R
FLAG ISLAND    CLEAR     -2  -9  71 NW10      30.31R WCI -19
INTL FALLS     PTCLDY    -2 -10  69 W7        30.27R WCI -15
WASKISH        CLEAR      3  -4  72 CALM      30.28R
BIG FORK       CLEAR      3  -6  66 CALM      30.26R
LONGVILLE      CLEAR      5  -2  72 CALM      30.26R
GRAND RAPIDS   CLEAR      7  -6  56 NW9       30.22S WCI  -7
CRANE LAKE     CLEAR      0  -8  71 CALM      30.28R
ORR            CLEAR      1  -9  60 CALM      30.21R
COOK           CLEAR      1  -8  66 CALM      30.24R
WALKER         FAIR       5  -4  66 N6        30.25R WCI  -6
$$
MNZ012-019>021-037-290000-
   Northeast Minnesota

CITY           SKY/WX    TMP DP  RH WIND       PRES   REMARKS
DULUTH         CLEAR      7  -5  57 NW5       30.20R WCI  -2
ELY            CLEAR      0  -8  71 W3        30.21R
HIBBING        CLEAR      2  -7  66 NW7       30.22R WCI -11
EVELETH        CLEAR      5  -4  66 NW3       30.23R
DULUTH HARBOR  CLEAR     14   0  52 CALM      30.28R
TWO HARBORS    CLEAR     10   0  61 W3        30.21R
SILVER BAY     CLEAR      9  -2  61 CALM      30.20R
GRAND MARAIS     N/A      8  -1  66 W3        30.23R
G MARAIS ARPRT CLEAR     -2  -9  71 NW7       30.09S WCI -16
$$
MNZ029>031-032-039>041-046>048-054>057-064-290000-
   West Central Minnesota

CITY           SKY/WX    TMP DP  RH WIND       PRES   REMARKS
FERGUS FALLS   CLEAR      9   0  66 N8        30.32R WCI  -4
WHEATON        PTCLDY     7   1  78 NW9       30.32R WCI  -7
MORRIS         CLEAR     12   7  79 NW9       30.26R WCI   0
ALEXANDRIA     CLEAR     14   3  61 N5        30.23R WCI   6
ELBOW LAKE     FAIR      13   3  65 N6        30.26R WCI   4
WADENA         CLEAR     10   0  61 N5        30.24R WCI   2
GLENWOOD       CLEAR     14   3  62 NE5       30.24R WCI   6
APPLETON       CLOUDY    16   9  73 NW9       30.27R WCI   4
BENSON         MOCLDY    12   9  85 N7        30.25R WCI   2
ORTONVILLE     CLOUDY    10   3  72 NW9       30.28R WCI  -2
MADISON        CLOUDY    18  12  79 N12       30.27R WCI   5
WILLMAR        FAIR      18  10  73 CALM      30.25R
$$
MNZ033>034-036-042>043-049>051-058-059-290000-
   Central Minnesota

CITY           SKY/WX    TMP DP  RH WIND       PRES   REMARKS
ST CLOUD       CLEAR     18   3  52 NW5       30.24R WCI  11
SAUK CENTRE    FAIR      14   1  57 N3        30.24R
PAYNESVILLE    CLEAR     14   7  73 NW3       30.24R
AITKIN         CLEAR     10   0  61 CALM      30.24R
PINE RIVER     CLEAR      7  -2  66 N3        30.28R
BRAINERD       CLEAR     10  -1  61 N6        30.25R WCI   0
STAPLES        CLEAR     10  -2  56 N5        30.25R WCI   2
LONG PRAIRIE   FAIR      12   1  62 NW5       30.24R WCI   4
LITTLE FALLS   CLEAR     14   0  52 CALM      30.25R
LITCHFIELD     CLEAR     18  14  86 CALM      30.24R
BUFFALO        CLEAR     18   9  67 NW3       30.24R
MAPLE LAKE     CLEAR     16   9  74 NW6       30.25R WCI   7
$$
MNZ037-044-045-052-053-290000-
   East Central Minnesota

CITY           SKY/WX    TMP DP  RH WIND       PRES   REMARKS
PRINCETON      CLEAR     16   1  53 CALM      30.24R
MORA           CLEAR     14   0  52 NW3       30.25R
CAMBRIDGE      CLEAR     18   5  57 CALM      30.23R
RUSH CITY      CLEAR     13   2  63 CALM      30.25R
MOOSE LAKE     CLEAR     10  -4  52 N3        30.23R
HINCKLEY       FAIR      14   1  57 CALM      30.24R
CLOQUET        CLEAR      7  -6  56 NW3       30.22R
MCGREGOR       CLEAR     10   1  67 NW5       30.25R WCI   2
$$
MNZ071>073-080-081-089-090-097-098-290000-
   Southwest Minnesota

CITY           SKY/WX    TMP DP  RH WIND       PRES   REMARKS
MONTEVIDEO     CLOUDY    18  14  86 N10       30.26R WCI   6
GRANITE FALLS  CLOUDY    21  17  83 NW10      30.24S WCI  10
CANBY          CLOUDY    14  10  85 N9        30.25S WCI   2
MARSHALL       CLOUDY    18  10  73 N13       30.22R WCI   4
REDWOOD FALLS  CLOUDY    23  17  78 NE5       30.22R WCI  17
OLIVIA         CLOUDY    21  18  86 N7        30.22R WCI  13
PIPESTONE      CLOUDY    19  18  93 NE8       30.16R WCI   9
WINDOM         CLOUDY    16  14  93 CALM      30.19R FOG
WORTHINGTON    CLOUDY    19 -26  12 NE15      30.17R WCI   5
JACKSON        CLOUDY    19  16  86 NE7       30.18R WCI  10
TRACY          CLEAR     18  15  88 N8        30.20S WCI   7
SLAYTON        PTCLDY    17  15  94 CALM      30.18R
$$
MNZ065>067-074>077-082>085-091>093-290000-
   South Central Minnesota

CITY           SKY/WX    TMP DP  RH WIND       PRES   REMARKS
MANKATO        CLEAR     16  12  86 NW3       30.22R
NEW ULM        CLOUDY    18  18 100 CALM      30.22R
ST JAMES       CLOUDY    18  18 100 N6        30.22S FOG     WCI   9
FAIRMONT       CLOUDY    18  12  79 N7        30.19R WCI   8
GLENCOE        CLOUDY    20  16  84 N6        30.22R WCI  12
FARIBAULT      PTCLDY    18  14  86 CALM      30.22R
OWATONNA       CLEAR     18  12  79 CALM      30.20R
ALBERT LEA     CLEAR     16  12  86 N3        30.19R
$$
MNZ078>079-086>088-094>096-290000-
   Southeast Minnesota

CITY           SKY/WX    TMP DP  RH WIND       PRES   REMARKS
ROCHESTER      CLEAR     17  12  80 N3        30.19R
RED WING       PTCLDY    19  12  73 CALM      30.23R
STANTON        MOCLDY    18  13  82 CALM      30.22R
DODGE CENTER   PTCLDY    16  12  86 N5        30.19R WCI   9
WINONA         PTCLDY    19  16  86 NW5       30.24R WCI  13
AUSTIN         PTCLDY    18  12  79 CALM      30.19R
PRESTON        CLOUDY    17  12  82 N3        30.19R
$$
ABBREVIATIONS USED IN REMARKS
   TC - TEMPERATURES IN CELSIUS
  WCI - WIND CHILL INDEX
   HX - HEAT INDEX
  VSB - VISIBILITY
$$



USA.gov is the U.S. government's official web portal to all federal, state and local government web resources and services.